sat.trackr.live / text

‹ back to catalog

STARLINK-3075

NORAD 49409 · 2021-104B

PAYLOAD ACTIVE UNKNOWN

§ Identity

Operator
Country
US
Launch date
2021-11-13
Launch site
AFETR
Launch vehicle
Mass (kg)
RCS (m²)

Purposes: comms

External: N2YO · Heavens-Above · Gunter

§ Orbital elements

Epoch: 2026-09-12T23:29:26.883168Z

Period
93.90 min
Inclination
53.1594°
Eccentricity
0.0000983
Mean motion
15.33555464 rev/d
Perigee alt
464.5 km
Apogee alt
465.9 km
Semi-major
6,843.4 km
B*
4.1960e-7
RAAN
95.0180°
Arg perigee
90.6123°
Mean anomaly
269.4992°
Rev number
26,709

§ Raw data

STARLINK-30751 49409U 21104B   26255.97878337 -.00000359  00000+0  41960-6 0  99992 49409  53.1594  95.0180 0000983  90.6123 269.4992 15.33555464267095

JSON: /api/v1/satellites/49409 · /tle

For live sub-satellite position, see the globe view (requires WebGL).

§ Visibility from observer

Set your observer location to see the next 7 days of passes ≥ 10°. The values pass through the URL so the page stays shareable.

No JS? Fill the form by hand. The geolocation button needs JavaScript.